Вернуться в каталог

ATLAS 5 CENTAUR DEB

LostHEO
NORAD 55854·DEBRIS·🇺🇸 United States

Запущен Oct 17, 2018 с Cape Canaveral Space Force Station

Loading…

Ближайшие Пролёты (ближайшие 24 часа)

TLE

УстаревшееSource: Space-Track

Эпоха: Jun 26, 2023, 08:45 UTC

1 55854U 18079HG  23177.36473757 -.00000049  00000-0  00000+0 0  9997
2 55854   8.6907 177.5273 3914274  59.4832 333.4999  1.64312578  5183

Отслеживайте ATLAS 5 CENTAUR DEB в реальном времени с AllMySat

Download on the App Store